7 * 24
多渠道服务支持
STARLINK-34502 是 SpaceX Starlink 卫星互联网项目中的一颗低轨卫星,属于第三代星群(v1.5 或 v2 版本)。该卫星由 SpaceX 设计并发射,旨在为全球用户提供高速、低延迟的宽带互联网服务。它运行在约 550 公里的轨道高度,配备先进通信设备和可展开的太阳能板,支持多频段通信。作为 Starlink 网络的一部分,该卫星有助于扩大覆盖范围并提升网络性能,尤其在偏远和网络基础设施薄弱的地区。
美国
(US)
| 数据来源 | 国际轨道数据 |
| 星历时间: | 2025-11-08T17:04:29+0800 1天前 查看轨道信息 |
| 半长轴: | 6853.47km |
| 偏心率: | 0.0001317 |
| 轨道倾角: | 53.160° |
| 近地点辐角 | 90.769° |
| 升交点赤经 | 330.314° |
| 平近点角 | 269.346° |
| 近地点: | 474.432km |
| 远地点: | 476.238km |
| 周期: | 94.108分钟 |
| 每日圈数: | 15.301606 |